Latest Weather Observations for Warwick

IDQ60901

Issued at 10:11 pm EST Saturday 20 December 2014 (issued every 10 minutes, with the page automatically refreshed every 10 minutes)

About weather observations | Map of Brisbane area stations | Latest observations for Brisbane area | Other Formats
Station Details ID: 041525 Name: WARWICK Lat: -28.21 Lon: 152.10 Height: 475.4 m
Data from the previous 72 hours. | See also: Recent months at Warwick
Date/Time
EST
Tmp

°C
App
Tmp
°C
Dew
Point
°C
Rel
Hum
%
Delta-T

°C
Wind Press
QNH
hPa
Press
MSL
hPa
Rain
since
9 am
mm
Dir
 
Spd
km/h
Gust
km/h
Spd
kts
Gust
kts
20/10:00pm 19.3 19.6 14.9 75 2.6 ENE 7 11 4 6 1017.9 1015.5 0.0
20/09:30pm 19.9 18.3 14.9 73 3.0 ENE 17 24 9 13 1017.7 1015.3 0.0
20/09:00pm 20.4 17.3 14.5 69 3.5 NE 24 32 13 17 1017.4 1014.9 0.0
20/08:30pm 20.8 18.0 14.4 67 3.8 NE 22 30 12 16 1016.8 1014.4 0.0
20/08:00pm 21.0 17.9 14.6 67 3.8 NE 24 30 13 16 1016.4 1014.0 0.0
20/07:30pm 21.6 18.0 14.2 62 4.4 NE 26 35 14 19 1015.8 1013.4 0.0
20/07:00pm 22.1 19.4 14.6 62 4.5 NE 22 28 12 15 1015.2 1012.7 0.0
20/06:30pm 23.2 19.0 14.6 58 5.2 NE 30 35 16 19 1014.6 1012.2 0.0
20/06:00pm 24.8 21.6 15.4 56 5.8 NE 26 30 14 16 1014.1 1011.7 0.0
20/05:30pm 25.6 23.6 15.6 54 6.2 E 20 30 11 16 1013.7 1011.3 0.0
20/05:00pm 26.3 24.4 15.1 50 6.9 E 19 26 10 14 1013.3 1010.8 0.0
20/04:30pm 26.7 24.7 15.4 50 7.0 E 20 28 11 15 1013.2 1010.7 0.0
20/04:00pm 26.8 26.0 16.1 52 6.7 E 15 22 8 12 1013.2 1010.7 0.0
20/03:30pm 26.6 24.7 15.7 51 6.8 E 20 28 11 15 1013.4 1010.9 0.0
20/03:00pm 27.6 26.7 15.8 48 7.4 ENE 15 30 8 16 1013.5 1011.0 0.0
20/02:30pm 27.3 27.0 14.4 45 7.9 NE 9 17 5 9 1014.0 1011.6 0.0
20/02:00pm 27.3 27.5 14.6 45 7.8 NNW 7 17 4 9 1014.5 1012.1 0.0
20/01:30pm 26.7 26.7 15.2 49 7.1 N 9 13 5 7 1014.7 1012.3 0.0
20/01:00pm 26.0 26.9 15.1 51 6.7 N 4 13 2 7 1015.2 1012.7 0.0
20/12:30pm 26.4 25.9 15.0 49 7.0 NNE 11 19 6 10 1015.5 1013.0 0.0
20/12:00pm 27.0 27.9 16.0 51 6.9 E 6 15 3 8 1015.7 1013.3 0.0
20/11:30am 25.7 26.0 15.1 52 6.5 NE 7 24 4 13 1016.1 1013.7 0.0
20/11:00am 25.4 25.0 15.3 53 6.2 ENE 11 19 6 10 1016.4 1014.0 0.0
20/10:30am 25.7 25.7 15.3 52 6.4 ENE 9 20 5 11 1016.6 1014.2 0.0
20/10:00am 25.6 26.4 15.8 54 6.1 NE 6 15 3 8 1016.7 1014.3 0.0
20/09:30am 24.3 24.3 15.1 56 5.6 SE 9 19 5 10 1016.8 1014.4 0.0
20/09:00am 23.3 23.2 14.9 59 5.1 ESE 9 17 5 9 1016.9 1014.5 0.0
20/08:30am 23.0 23.2 14.7 59 5.0 E 7 13 4 7 1017.0 1014.6 0.0
20/08:00am 22.4 22.2 14.8 62 4.6 ESE 9 15 5 8 1017.0 1014.6 0.0
20/07:30am 22.0 22.0 15.2 65 4.1 SE 9 15 5 8 1016.8 1014.4 0.0
20/07:00am 21.1 21.4 15.9 72 3.2 E 9 15 5 8 1016.7 1014.3 0.0
20/06:30am 19.7 20.7 16.4 81 2.0 E 6 11 3 6 1016.3 1013.9 0.0
20/06:00am 18.4 19.0 15.9 85 1.5 ENE 7 9 4 5 1015.9 1013.5 0.0
20/05:30am 17.2 17.7 15.5 90 1.0 ENE 7 9 4 5 1015.8 1013.4 0.0
20/05:00am 17.1 18.5 15.4 90 1.0 ESE 2 6 1 3 1015.4 1012.9 0.0
20/04:30am 17.3 18.5 15.8 91 0.9 SE 4 9 2 5 1015.1 1012.6 0.0
20/04:00am 17.6 18.2 15.8 89 1.1 SE 7 13 4 7 1014.8 1012.4 0.0
20/03:00am 17.8 18.7 16.0 89 1.1 SE 6 9 3 5 1014.6 1012.2 0.0
20/02:30am 18.0 19.2 16.0 88 1.2 SE 4 7 2 4 1014.6 1012.2 0.0
20/02:00am 18.3 19.0 16.2 87 1.3 SE 7 13 4 7 1014.6 1012.2 0.0
20/01:00am 18.7 18.7 16.2 85 1.5 SE 11 17 6 9 1014.9 1012.5 0.0
20/12:30am 19.0 19.1 16.4 85 1.6 SSE 11 19 6 10 1015.2 1012.7 0.0
20/12:00am 19.1 19.7 16.7 86 1.5 SSE 9 15 5 8 1015.4 1012.9 0.0
 
Date/Time
EST
Tmp

°C
App
Tmp
°C
Dew
Point
°C
Rel
Hum
%
Delta-T

°C
Wind Press
QNH
hPa
Press
MSL
hPa
Rain
since
9 am
mm
Dir
 
Spd
km/h
Gust
km/h
Spd
kts
Gust
kts
19/11:30pm 19.4 19.5 16.6 84 1.7 SE 11 20 6 11 1015.5 1013.0 0.0
19/11:00pm 19.7 19.1 16.6 82 1.9 SE 15 30 8 16 1015.5 1013.0 0.0
19/10:30pm 20.0 19.6 17.1 83 1.8 SE 15 24 8 13 1015.5 1013.0 0.0
19/10:00pm 20.4 19.6 17.2 82 2.0 SSE 17 24 9 13 1015.4 1012.9 0.0
19/09:30pm 20.8 19.7 17.3 80 2.2 SSE 19 26 10 14 1015.2 1012.7 0.0
19/09:00pm 21.2 20.6 17.5 79 2.3 SSE 17 26 9 14 1014.9 1012.5 0.0
19/08:30pm 22.1 20.8 17.3 74 3.0 SSE 20 35 11 19 1014.3 1011.9 0.0
19/08:00pm 23.5 21.6 16.8 66 4.2 SSE 22 33 12 18 1013.5 1011.0 0.0
19/07:30pm 25.3 25.5 14.2 50 6.7 WSW 6 24 3 13 1012.6 1010.2 0.0
19/07:00pm 24.8 26.6 15.4 56 5.8 CALM 0 0 0 0 1012.0 1009.6 0.0
19/06:30pm 27.9 26.5 13.3 40 8.8 SSW 13 19 7 10 1011.7 1009.2 0.0
19/06:00pm 29.2 26.1 11.6 33 10.4 SSW 19 24 10 13 1011.2 1008.7 0.0
19/05:30pm 29.4 26.7 11.6 33 10.5 SSW 17 20 9 11 1011.0 1008.5 0.0
19/05:00pm 29.9 26.0 9.5 28 11.7 SW 20 28 11 15 1010.7 1008.2 0.0
19/04:30pm 30.5 26.9 10.4 28 11.7 SW 20 28 11 15 1010.6 1008.1 0.0
19/04:00pm 30.0 25.0 9.6 28 11.7 SW 26 35 14 19 1010.4 1008.0 0.0
19/03:30pm 30.8 25.6 8.8 25 12.5 SW 26 35 14 19 1010.4 1008.0 0.0
19/03:00pm 30.6 26.9 10.1 28 11.9 SW 20 35 11 19 1010.7 1008.2 0.0
19/02:30pm 30.3 25.8 10.1 28 11.7 SW 24 41 13 22 1011.0 1008.5 0.0
19/02:00pm 30.5 25.2 9.9 28 11.9 SW 28 44 15 24 1011.2 1008.7 0.0
19/01:30pm 30.0 26.3 10.1 29 11.5 WSW 20 32 11 17 1011.6 1009.1 0.0
19/01:00pm 29.4 27.9 13.0 36 9.9 W 13 32 7 17 1011.9 1009.5 0.0
19/12:30pm 29.1 27.6 13.2 37 9.6 WSW 13 24 7 13 1012.1 1009.7 0.0
19/12:00pm 28.4 25.5 12.2 36 9.6 SW 19 28 10 15 1012.5 1010.1 0.0
19/11:30am 27.5 26.5 15.6 48 7.4 WSW 15 24 8 13 1013.1 1010.6 0.0
19/11:00am 27.0 26.9 16.0 51 6.9 SW 11 17 6 9 1013.3 1010.8 0.0
19/10:30am 26.1 25.6 16.0 53 6.3 WSW 13 22 7 12 1013.6 1011.1 0.0
19/10:00am 25.2 25.3 17.5 62 4.9 WSW 13 22 7 12 1013.6 1011.1 0.0
19/09:30am 24.3 24.8 17.4 65 4.4 W 11 17 6 9 1013.8 1011.4 0.0
19/09:00am 22.7 23.2 17.5 72 3.3 WNW 11 17 6 9 1013.8 1011.4 20.0
19/08:30am 21.6 22.3 17.1 75 2.8 W 9 13 5 7 1013.9 1011.5 20.0
19/08:00am 20.5 21.6 17.1 81 2.1 WNW 7 11 4 6 1014.1 1011.7 20.0
19/07:30am 19.6 19.9 17.0 85 1.6 WNW 11 17 6 9 1014.4 1012.0 20.0
19/07:00am 19.3 21.6 16.7 85 1.6 CALM 0 0 0 0 1014.1 1011.7 20.0
19/06:30am 18.3 20.3 16.0 86 1.4 CALM 0 0 0 0 1013.9 1011.5 20.0
19/06:00am 17.5 19.4 15.7 89 1.1 CALM 0 0 0 0 1013.8 1011.4 20.0
19/05:30am 17.0 18.9 15.8 93 0.7 CALM 0 0 0 0 1013.6 1011.1 20.0
19/05:00am 17.1 19.0 15.8 92 0.8 CALM 0 0 0 0 1013.4 1010.9 20.0
19/04:30am 17.7 18.4 15.5 87 1.3 WNW 6 9 3 5 1013.1 1010.6 20.0
19/04:00am 18.1 18.1 15.1 82 1.8 NNW 9 13 5 7 1012.9 1010.4 20.0
19/03:30am 18.2 17.3 15.9 86 1.4 N 15 19 8 10 1012.6 1010.2 20.0
19/03:00am 18.3 17.8 16.0 86 1.4 N 13 19 7 10 1012.4 1010.0 20.0
19/02:30am 18.4 17.4 15.6 84 1.7 NNW 15 19 8 10 1012.4 1010.0 20.0
19/02:00am 18.3 17.1 16.2 87 1.3 N 17 19 9 10 1012.8 1010.3 19.8
19/01:30am 18.2 16.5 15.7 85 1.5 N 19 24 10 13 1013.1 1010.6 19.8
19/01:00am 19.5 19.9 18.1 92 0.9 NNW 13 17 7 9 1013.8 1011.4 19.6
19/12:30am 19.6 19.8 17.7 89 1.2 NNW 13 17 7 9 1014.2 1011.8 18.8
19/12:00am 20.3 20.9 17.8 85 1.6 NNW 11 17 6 9 1014.1 1011.7 18.6
 
Date/Time
EST
Tmp

°C
App
Tmp
°C
Dew
Point
°C
Rel
Hum
%
Delta-T

°C
Wind Press
QNH
hPa
Press
MSL
hPa
Rain
since
9 am
mm
Dir
 
Spd
km/h
Gust
km/h
Spd
kts
Gust
kts
18/11:30pm 20.3 21.7 18.6 90 1.1 NNW 9 11 5 6 1013.6 1011.1 18.4
18/11:00pm 20.7 21.6 19.3 92 0.9 N 13 17 7 9 1013.0 1010.5 18.0
18/10:30pm 21.0 24.1 19.6 92 0.9 NE 2 9 1 5 1013.2 1010.7 17.4
18/10:00pm 21.0 24.6 19.8 93 0.8 CALM 0 0 0 0 1013.6 1011.1 17.2
18/09:30pm 21.2 24.7 19.5 90 1.1 CALM 0 6 0 3 1013.1 1010.6 17.0
18/09:00pm 21.5 23.0 19.0 86 1.6 NW 9 15 5 8 1013.4 1010.9 17.0
18/08:30pm 21.5 24.5 19.2 87 1.5 SSW 2 7 1 4 1013.3 1010.8 17.0
18/08:00pm 21.4 23.8 19.7 90 1.1 WNW 6 9 3 5 1012.9 1010.4 17.0
18/07:30pm 21.5 23.9 19.7 89 1.2 WNW 6 13 3 7 1012.5 1010.1 17.0
18/07:00pm 21.3 23.4 20.1 93 0.8 W 9 17 5 9 1012.9 1010.4 16.8
18/06:30pm 21.6 21.8 19.3 87 1.5 NNE 17 26 9 14 1011.8 1009.4 16.8
18/06:00pm 21.5 23.3 20.3 93 0.8 NE 11 19 6 10 1011.7 1009.2 16.8
18/05:30pm 21.7 22.9 20.0 90 1.1 N 13 17 7 9 1011.9 1009.5 16.8
18/05:00pm 21.1 24.8 20.0 93 0.7 CALM 0 0 0 0 1011.9 1009.5 16.6
18/04:30pm 20.8 22.9 20.2 96 0.4 W 9 17 5 9 1011.5 1009.0 16.2
18/04:00pm 20.2 16.9 20.0 99 0.1 WSW 37 57 20 31 1011.0 1008.5 11.6
18/03:50pm 21.7 18.5 20.2 91 1.0 WSW 37 59 20 32 1010.6 1008.1 0.8
18/03:40pm 26.4 26.5 19.1 64 4.8 NNW 17 54 9 29 1008.4 1005.9 0.0
18/03:30pm 28.3 28.3 19.7 59 5.7 NNE 19 24 10 13 1006.7 1004.2 0.0
18/03:00pm 29.5 28.0 17.8 49 7.6 NNE 22 32 12 17 1006.8 1004.3 0.0
18/02:30pm 30.2 28.2 17.4 46 8.3 NNE 24 32 13 17 1006.8 1004.3 0.0
18/02:00pm 30.2 29.1 17.7 47 8.1 NNE 20 32 11 17 1007.2 1004.7 0.0
18/01:30pm 31.5 30.8 18.6 46 8.5 NNE 20 28 11 15 1007.5 1005.0 0.0
18/01:00pm 32.3 30.8 18.5 44 9.1 N 24 33 13 18 1008.4 1005.9 0.0
18/12:30pm 32.4 30.8 15.9 37 10.5 NW 19 32 10 17 1008.9 1006.4 0.0
18/12:00pm 32.2 30.9 15.9 37 10.4 NW 17 26 9 14 1009.6 1007.1 0.0
18/11:30am 31.4 29.1 15.6 38 10.0 NNW 22 33 12 18 1010.1 1007.7 0.0
18/11:00am 30.7 28.7 16.5 42 9.1 N 22 35 12 19 1010.2 1007.8 0.0
18/10:30am 29.9 27.8 14.8 39 9.4 NNW 19 35 10 19 1010.9 1008.4 0.0
18/10:00am 28.4 28.1 17.3 51 7.1 N 15 22 8 12 1011.2 1008.7 0.0
18/09:30am 27.5 28.3 17.4 54 6.5 NNE 9 13 5 7 1011.6 1009.1 0.0
18/09:00am 27.3 27.7 17.3 54 6.4 NNE 11 17 6 9 1012.0 1009.6 28.8
18/08:30am 26.5 27.9 18.7 62 5.1 NNW 9 15 5 8 1012.1 1009.7 28.8
18/08:00am 24.0 27.7 19.9 78 2.7 CALM 0 0 0 0 1012.3 1009.9 28.8
18/07:30am 22.9 26.4 19.5 81 2.2 CALM 0 0 0 0 1012.5 1010.1 28.8
18/07:00am 21.3 24.7 19.3 88 1.3 CALM 0 0 0 0 1012.3 1009.9 28.8
18/06:30am 21.0 24.5 19.6 92 0.9 CALM 0 0 0 0 1011.8 1009.4 28.8
18/06:00am 20.7 24.1 19.3 92 0.9 CALM 0 6 0 3 1012.0 1009.6 28.8
18/05:30am 20.2 23.2 19.3 95 0.6 SE 2 7 1 4 1011.7 1009.2 28.8
18/05:00am 20.2 23.6 19.3 95 0.6 CALM 0 0 0 0 1011.6 1009.1 28.8
18/04:30am 20.3 23.8 19.5 95 0.5 CALM 0 0 0 0 1011.5 1009.0 28.8
18/04:00am 20.6 23.7 19.4 93 0.8 N 2 7 1 4 1011.3 1008.8 28.8
18/03:30am 20.7 24.2 19.5 93 0.8 CALM 0 6 0 3 1011.2 1008.7 28.8
18/03:00am 20.8 24.1 19.2 90 1.0 CALM 0 0 0 0 1011.6 1009.1 28.8
18/02:30am 20.7 23.3 18.5 87 1.4 NE 2 9 1 5 1011.3 1008.8 28.8
18/02:00am 21.3 23.0 18.5 84 1.8 E 7 11 4 6 1010.8 1008.3 28.8
18/01:30am 21.4 25.0 19.7 90 1.1 CALM 0 0 0 0 1010.8 1008.3 28.8
18/01:00am 20.9 24.2 19.2 90 1.1 CALM 0 0 0 0 1010.8 1008.3 28.8
18/12:30am 20.8 22.8 18.8 88 1.3 ESE 6 13 3 7 1010.8 1008.3 28.8
18/12:00am 20.4 21.6 18.2 87 1.4 SE 9 20 5 11 1010.8 1008.3 28.8
 
Date/Time
EST
Tmp

°C
App
Tmp
°C
Dew
Point
°C
Rel
Hum
%
Delta-T

°C
Wind Press
QNH
hPa
Press
MSL
hPa
Rain
since
9 am
mm
Dir
 
Spd
km/h
Gust
km/h
Spd
kts
Gust
kts
17/11:30pm 20.0 21.0 18.6 92 0.9 ENE 11 17 6 9 1010.7 1008.2 28.8
17/11:00pm 19.9 19.6 18.3 90 1.0 E 17 30 9 16 1010.7 1008.2 28.8
17/10:46pm 19.4 17.7 17.3 88 1.3 ENE 22 48 12 26 1011.1 1008.6 28.8
17/10:36pm 18.6 14.6 16.8 89 1.1 NE 33 72 18 39 1010.8 1008.3 28.2
17/10:35pm 18.7 15.0 16.9 89 1.1 NE 32 72 17 39 1011.0 1008.5 27.4
17/10:34pm 18.8 16.0 17.2 90 1.0 NE 28 72 15 39 1011.2 1008.7 25.8
17/10:30pm 21.9 18.8 17.6 76 2.7 SSW 30 52 16 28 1011.8 1009.4 18.8
17/10:15pm 22.6 22.0 20.5 88 1.4 S 24 44 13 24 1010.8 1008.3 3.8

Latest Capital City Observations: Canberra | Sydney | Melbourne | Brisbane | Adelaide | Perth | Hobart | Darwin

Other Formats:

Comma delimited format used in spreadsheet applications
http://www.bom.gov.au/fwo/IDQ60901/IDQ60901.94555.axf

JavaScript Object Notation format (JSON) in row-major order
http://www.bom.gov.au/fwo/IDQ60901/IDQ60901.94555.json